Litchfield, MN

12:47 PM CDT on August 18, 2017 (GMT -0500)
Litchfield Municipal

Weather History for KLJF - November, 2011

Change the Weather History Date:

Thursday, November 17, 2011

  Actual Average Record
Temperature  
Mean Temperature 21 °F -  
Max Temperature 30 °F 40 °F 69 °F (1953)
Min Temperature 12 °F 24 °F -7 °F (1959)
Degree Days  
Heating Degree Days 44    
Moisture  
Dew Point 9 °F    
Average Humidity 66    
Maximum Humidity 93    
Minimum Humidity 32    
Precipitation  
Precipitation 0.00 in - - ()
Sea Level Pressure  
Sea Level Pressure 30.12 in    
Wind  
Wind Speed 7 mph (West)    
Max Wind Speed 12 mph    
Max Gust Speed 16 mph    
Visibility 10 miles    
Events      
Averages and records for this station are not official NWS values.
T = Trace of Precipitation, MM = Missing Value Source: NWS Daily Summary

Daily Weather History Graph

Daily Weather History Graph

Search for Another Location

Airport or City:

Trip Planner

Search our weather history database for the weather conditions in past years. The results will help you decide how hot, cold, wet, or windy it might be!

Date:

Astronomy

Nov. 17, 2011 Rise Set
Actual Time 7:18 AM CST 4:47 PM CST
Civil Twilight 6:46 AM CST 5:19 PM CST
Nautical Twilight 6:10 AM CST 5:54 PM CST
Astronomical Twilight 5:35 AM CST 6:29 PM CST
Moon 11:14 PM CST (11/17) 12:23 PM CST (11/17)
Length of Visible Light 10h 32m
Length of Day
9h 28m
Waning Gibbous, 59% of the Moon is Illuminated
Nov 17
Waning Gibbous
Nov 18
Last Quarter
Nov 25
New
Dec 2
First Quarter
Dec 10
Full

Hourly Weather History & Observations

Time (CST) Temp. Windchill Dew Point Humidity Pressure Visibility Wind Dir Wind Speed Gust Speed Precip Events Conditions
12:13 AM 19.4 °F 7.9 °F 12.2 °F 74% 30.14 in 10.0 mi West 10.4 mph - N/A   Clear
12:33 AM 19.4 °F 8.6 °F 12.2 °F 74% 30.14 in 10.0 mi WNW 9.2 mph - N/A   Clear
12:53 AM 17.6 °F 6.4 °F 12.2 °F 79% 30.14 in 10.0 mi WNW 9.2 mph - N/A   Clear
1:06 AM 17.6 °F 5.0 °F 10.4 °F 73% 30.14 in 10.0 mi WNW 11.5 mph 16.1 mph N/A   Clear
1:33 AM 17.6 °F 7.3 °F 12.2 °F 79% 30.14 in 10.0 mi WNW 8.1 mph - N/A   Clear
2:13 AM 17.6 °F 8.2 °F 12.2 °F 79% 30.15 in 10.0 mi West 6.9 mph - N/A   Clear
2:33 AM 17.6 °F 9.3 °F 12.2 °F 79% 30.15 in 10.0 mi WNW 5.8 mph - N/A   Clear
2:54 AM 15.8 °F 6.1 °F 12.2 °F 86% 30.15 in 10.0 mi WNW 6.9 mph - N/A   Clear
3:13 AM 15.8 °F 6.1 °F 12.2 °F 86% 30.15 in 10.0 mi West 6.9 mph - N/A   Clear
3:33 AM 15.8 °F 5.1 °F 12.2 °F 86% 30.15 in 10.0 mi West 8.1 mph - N/A   Clear
3:53 AM 15.8 °F 6.1 °F 12.2 °F 86% 30.15 in 10.0 mi West 6.9 mph - N/A   Clear
4:13 AM 15.8 °F 6.1 °F 12.2 °F 86% 30.15 in 10.0 mi West 6.9 mph - N/A   Clear
4:33 AM 14.0 °F 2.9 °F 12.2 °F 93% 30.15 in 10.0 mi West 8.1 mph - N/A   Clear
4:53 AM 14.0 °F 3.9 °F 12.2 °F 93% 30.15 in 10.0 mi West 6.9 mph - N/A   Clear
5:13 AM 14.0 °F 3.9 °F 10.4 °F 86% 30.15 in 10.0 mi West 6.9 mph - N/A   Clear
5:33 AM 14.0 °F 5.1 °F 10.4 °F 86% 30.15 in 10.0 mi West 5.8 mph - N/A   Clear
5:53 AM 12.2 °F 0.7 °F 10.4 °F 92% 30.15 in 10.0 mi West 8.1 mph - N/A   Clear
6:13 AM 12.2 °F 1.7 °F 10.4 °F 92% 30.15 in 10.0 mi West 6.9 mph - N/A   Clear
6:33 AM 12.2 °F 2.9 °F 10.4 °F 92% 30.16 in 10.0 mi West 5.8 mph - N/A   Clear
6:53 AM 12.2 °F 1.7 °F 10.4 °F 92% 30.16 in 10.0 mi West 6.9 mph - N/A   Clear
7:13 AM 12.2 °F 6.1 °F 10.4 °F 92% 30.16 in 10.0 mi West 3.5 mph - N/A   Clear
7:33 AM 12.2 °F -0.2 °F 10.4 °F 92% 30.16 in 10.0 mi West 9.2 mph - N/A   Clear
7:53 AM 12.2 °F 6.1 °F 10.4 °F 92% 30.16 in 10.0 mi West 3.5 mph - N/A   Clear
8:13 AM 14.0 °F 6.5 °F 12.2 °F 93% 30.16 in 10.0 mi West 4.6 mph - N/A   Clear
8:33 AM 15.8 °F 5.1 °F 12.2 °F 86% 30.17 in 10.0 mi West 8.1 mph - N/A   Clear
8:53 AM 15.8 °F 6.1 °F 12.2 °F 86% 30.17 in 10.0 mi West 6.9 mph - N/A   Clear
9:13 AM 17.6 °F 7.3 °F 12.2 °F 79% 30.18 in 10.0 mi West 8.1 mph - N/A   Clear
9:33 AM 19.4 °F 9.5 °F 12.2 °F 74% 30.18 in 10.0 mi NW 8.1 mph - N/A   Clear
9:53 AM 19.4 °F 9.5 °F 10.4 °F 68% 30.18 in 10.0 mi WNW 8.1 mph - N/A   Clear
10:13 AM 21.2 °F 10.9 °F 12.2 °F 68% 30.17 in 10.0 mi NW 9.2 mph - N/A   Clear
10:33 AM 21.2 °F 11.7 °F 10.4 °F 63% 30.17 in 10.0 mi NW 8.1 mph - N/A   Clear
10:53 AM 21.2 °F 12.6 °F 10.4 °F 63% 30.17 in 10.0 mi West 6.9 mph - N/A   Clear
11:13 AM 23.0 °F 14.7 °F 6.8 °F 50% 30.16 in 10.0 mi NNW 6.9 mph - N/A   Clear
11:33 AM 24.8 °F 17.9 °F 6.8 °F 46% 30.15 in 10.0 mi West 5.8 mph - N/A   Clear
11:53 AM 24.8 °F 19.1 °F 6.8 °F 46% 30.13 in 10.0 mi West 4.6 mph - N/A   Clear
12:13 PM 24.8 °F 19.1 °F 6.8 °F 46% 30.12 in 10.0 mi NW 4.6 mph - N/A   Clear
12:33 PM 26.6 °F 20.0 °F 6.8 °F 43% 30.11 in 10.0 mi WNW 5.8 mph - N/A   Clear
12:53 PM 26.6 °F 20.0 °F 5.0 °F 40% 30.11 in 10.0 mi West 5.8 mph - N/A   Clear
1:13 PM 28.4 °F 23.3 °F 5.0 °F 37% 30.11 in 10.0 mi West 4.6 mph - N/A   Clear
1:33 PM 28.4 °F - 5.0 °F 37% 30.09 in 10.0 mi Calm Calm - N/A   Clear
2:13 PM 28.4 °F 24.6 °F 5.0 °F 37% 30.07 in 10.0 mi SSE 3.5 mph - N/A   Clear
2:33 PM 28.4 °F 24.6 °F 5.0 °F 37% 30.06 in 10.0 mi SW 3.5 mph - N/A   Clear
2:53 PM 28.4 °F - 5.0 °F 37% 30.05 in 10.0 mi Calm Calm - N/A   Clear
3:13 PM 30.2 °F 25.4 °F 3.2 °F 32% 30.04 in 10.0 mi SSE 4.6 mph - N/A   Clear
3:33 PM 28.4 °F - 3.2 °F 34% 30.04 in 10.0 mi Calm Calm - N/A   Clear
3:53 PM 28.4 °F 23.3 °F 5.0 °F 37% 30.03 in 10.0 mi SE 4.6 mph - N/A   Clear
4:14 PM 28.4 °F 22.2 °F 6.8 °F 40% 30.02 in 10.0 mi SE 5.8 mph - N/A   Clear
4:33 PM 28.4 °F 23.3 °F 6.8 °F 40% 30.02 in 10.0 mi SE 4.6 mph - N/A   Scattered Clouds
4:54 PM 26.6 °F 20.0 °F 6.8 °F 43% 30.01 in 10.0 mi SE 5.8 mph - N/A   Clear
5:13 PM 26.6 °F 19.1 °F 6.8 °F 43% 29.99 in 10.0 mi SE 6.9 mph - N/A   Clear
5:33 PM 26.6 °F 20.0 °F 6.8 °F 43% 29.99 in 10.0 mi SE 5.8 mph - N/A   Clear
5:54 PM 26.6 °F 18.2 °F 8.6 °F 47% 29.99 in 10.0 mi SE 8.1 mph - N/A   Clear
6:13 PM 26.6 °F 17.5 °F 8.6 °F 47% 29.99 in 10.0 mi SE 9.2 mph - N/A   Scattered Clouds
6:33 PM 26.6 °F 17.5 °F 8.6 °F 47% 29.98 in 10.0 mi SE 9.2 mph - N/A   Mostly Cloudy
6:54 PM 26.6 °F 16.8 °F 8.6 °F 47% 29.97 in 10.0 mi SE 10.4 mph - N/A   Scattered Clouds
7:33 PM 26.6 °F 16.2 °F 8.6 °F 47% 29.95 in 10.0 mi ESE 11.5 mph - N/A   Mostly Cloudy
7:53 PM 26.6 °F 15.7 °F 8.6 °F 47% 29.93 in 10.0 mi ESE 12.7 mph - N/A   Mostly Cloudy
8:13 PM 26.6 °F 15.7 °F 8.6 °F 47% 29.91 in 10.0 mi ESE 12.7 mph - N/A   Scattered Clouds
8:33 PM 26.6 °F 15.7 °F 8.6 °F 47% 29.91 in 10.0 mi ESE 12.7 mph - N/A   Scattered Clouds
8:53 PM 26.6 °F 15.2 °F 8.6 °F 47% 29.89 in 10.0 mi ESE 13.8 mph - N/A   Mostly Cloudy
9:33 PM 28.4 °F 17.0 °F 8.6 °F 43% 29.85 in 10.0 mi ESE 15.0 mph - N/A   Mostly Cloudy
9:53 PM 28.4 °F 17.5 °F 10.4 °F 47% 29.83 in - SE 13.8 mph - N/A   Scattered Clouds
10:33 PM 30.2 °F 18.9 °F 10.4 °F 44% 29.80 in 10.0 mi SE 16.1 mph 24.2 mph N/A   Scattered Clouds
10:54 PM 30.2 °F 19.8 °F 10.4 °F 44% 29.78 in 10.0 mi SE 13.8 mph - N/A   Mostly Cloudy
11:13 PM 30.2 °F 20.2 °F 10.4 °F 44% 29.76 in 10.0 mi SE 12.7 mph - N/A   Overcast
11:33 PM 30.2 °F 20.2 °F 12.2 °F 47% 29.74 in 10.0 mi SE 12.7 mph - N/A   Overcast
11:53 PM 30.2 °F 20.8 °F 12.2 °F 47% 29.73 in 10.0 mi SE 11.5 mph - N/A   Mostly Cloudy